Location: Ferchesar
(52.6477°N, 12.4298°E)
Time: 10:04:28
(UTC+01:00)

S-56A Canister/Altair - Pass Details

Date: 15 December 2021
Orbit: 633 x 2499 km, 38.9° (Epoch: 19 January)

Event Time Altitude Azimuth Distance (km) Brightness Sun altitude
Rises 02:24:09 0° 271° (W) 5,092 - -50.6°
Reaches altitude 10° 02:30:04 10° 249° (WSW) 3,628 - -49.8°
Maximum altitude 02:33:48 13° 224° (SW) 3,060 - -49.3°
Drops below altitude 10° 02:37:03 10° 198° (SSW) 3,026 - -48.9°
Sets 02:41:05 0° 171° (S) 3,633 - -48.4°
